This is the latest recevied weather packets stored in our database for station/object K1AWR. If no packets are shown the sender has not sent any weather packets the latest 10 day(s).
| Time | Temp. | Humidity | Pressure | Rain* | Wind** | Luminosity | Snow |
|---|---|---|---|---|---|---|---|
| 1777500953 | 17.22° C | 53% | 1011.4 hPa | 0 mm | - | 68 W/m² | - |
| 1777500650 | 17.22° C | 52% | 1011.5 hPa | 0 mm | - | 73 W/m² | - |
| 1777500347 | 17.78° C | 52% | 1011.6 hPa | 0 mm | - | 81 W/m² | - |
| 1777500043 | 17.78° C | 53% | 1011.5 hPa | 0 mm | - | 89 W/m² | - |
| 1777499739 | 17.78° C | 51% | 1011.5 hPa | 0 mm | - | 95 W/m² | - |
| 1777499436 | 17.78° C | 51% | 1011.5 hPa | 0 mm | - | 102 W/m² | - |
| 1777499135 | 18.33° C | 50% | 1011.3 hPa | 0 mm | - | 105 W/m² | - |
| 1777498831 | 17.78° C | 50% | 1011.3 hPa | 0 mm | - | 102 W/m² | - |
| 1777498527 | 17.78° C | 51% | 1011.2 hPa | 0 mm | - | 92 W/m² | - |
| 1777498223 | 17.78° C | 49% | 1011.3 hPa | 0 mm | - | 87 W/m² | - |
| 1777497922 | 17.78° C | 49% | 1011.6 hPa | 0 mm | - | 85 W/m² | - |
| 1777497617 | 18.33° C | 52% | 1011.6 hPa | 0 mm | - | 89 W/m² | - |
| 1777497315 | 18.33° C | 50% | 1011.7 hPa | 0 mm | - | 97 W/m² | - |
| 1777497010 | 18.33° C | 50% | 1011.7 hPa | 0 mm | - | 99 W/m² | - |
| 1777496708 | 18.33° C | 49% | 1011.8 hPa | 0 mm | - | 104 W/m² | - |
| 1777496403 | 18.33° C | 50% | 1011.8 hPa | 0 mm | - | 118 W/m² | - |
| 1777496101 | 18.89° C | 49% | 1011.9 hPa | 0 mm | - | 137 W/m² | - |
| 1777495796 | 18.89° C | 50% | 1011.9 hPa | 0 mm | - | 165 W/m² | - |
| 1777495493 | 19.44° C | 45% | 1012 hPa | 0 mm | - | 166 W/m² | - |
| 1777495189 | 18.89° C | 49% | 1012 hPa | 0 mm | - | 203 W/m² | - |
| 1777494886 | 18.89° C | 47% | 1012 hPa | 0 mm | - | 260 W/m² | - |
| 1777494583 | 20° C | 45% | 1012 hPa | 0 mm | - | 275 W/m² | - |
| 1777494281 | 20° C | 48% | 1012.2 hPa | 0 mm | - | 307 W/m² | - |
| 1777493977 | 20° C | 45% | 1012.2 hPa | 0 mm | - | 247 W/m² | - |
| 1777493675 | 20° C | 48% | 1012.3 hPa | 0 mm | - | 358 W/m² | - |
* Rain latest hour (hover to see other rain measurements)
** Current wind speed in m/s (hover to see current wind gust speed)